SCP
0 0 0 0 0 0 0 0 0 0 0 0 0 0 0 0 0 0 0 0 0 0 0 0 0 0 0 0 0 0 0 0 0 0 0 0 0 0 0 0 0 0 0
0 0 0 0 0 0 0 0 0 0 0 0 0 0 0 0 0 0 0 0 0 0 0 0 0 0 0 0 0 0 0 0 0 0 0 0 0 0 0 0 0 0 0
0 0 0 0 0 0 0 0 0 0 0 0 0 0 0 0 0 0 0 0 0 0 0 0 0 0 0 0 0 0 0 0 0 0 0 0 0 0 0 0 0 0 0
0 0 0 0 0 0 0 0 0 0 0 0 0 0 0 0 0 0 0 0 0 0 0 0 0 0 0 0 0 0 0 0 0 0 0 0 0 0 0 0 0 0 0
0 0 0 0 0 0 0 0 0 0 0 0 0 0 0 0 0 0 0 0 0 0 0 0 0 0 0 0 0 0 0 0 0 0 0 0 0 0 0 0 0 0 0
0 0 0 0 0 0 0 0 0 0 0 0 0 0 0 0 0 0 0 0 0 0 0 0 0 0 0 0 0 0 0 0 0 0 0 0 0 0 0 0 0 0 0
0 0 0 0 0 0 0 0 0 0 0 0 0 0 0 0 0 0 0 0 0 0 0 0 0 0 0 0 0 0 0 0 0 0 0 0 0 0 0 0 0 0 0
0 0 0 0 0 0 0 0 0 0 0 0 0 0 0 0 0 0 0 0 0 0 0 0 0 0 0 0 0 0 0 0 0 0 0 0 0 0 0 0 0 0 0
0 0 0 0 0 0 0 0 0 0 0 0 0 0 0 0 0 0 0 0 0 0 0 0 0 0 0 0 0 0 0 0 0 0 0 0 0 0 0 0 0 0 0
0 0 0 0 0 0 0 0 0 0 0 0 0 0 0 0 0 0 0 0 0 0 0 0 0 0 0 0 0 -0 0 0 0 0 0 0 0 0 0 0 0 0 0
0 0 0 0 0 0 0 0 0 0 0 0 0 0 0 0 0 0 0 0 0 0 0 0 0 0 0 -0 -0 -0 -0 0 0 0 0 0 0 0 0 0 0 0 0
0 0 0 0 0 0 0 0 0 0 0 0 0 0 0 0 0 0 0 0 0 0 0 0 0 -0 -0 -0 -0 -0 -0 0 0 0 0 0 0 0 0 0 0 0 0
0 0 0 0 0 0 0 0 0 0 0 0 0 0 0 0 0 0 0 0 0 0 0 0 0 0 0 0 0 0 0 0 0 0 0 0 0 0 0 0 0 0 0
0 0 0 0 0 0 0 0 0 0 0 0 0 0 0 0 0 0 0 0 0 0 0 0 0 0 0 0 0 0 0 0 0 0 0 0 0 0 0 0 0 0 0
0 0 0 0 0 0 0 0 0 0 0 0 0 0 0 0 0 0 0 0 0 0 0 0 0 0 0 0 0 0 0 0 0 0 0 0 0 0 0 0 0 0 0
0 0 0 0 0 0 0 0 0 0 0 0 0 0 0 0 0 0 0 0 0 0 0 0 0 0 0 0 0 0 0 0 0 0 0 0 0 0 0 0 0 0 0
0 0 0 0 0 0 0 0 0 1 1 1 0 0 0 0 0 0 0 0 0 0 0 0 0 0 0 0 0 0 0 0 0 0 0 0 0 0 0 0 0 0 0
0 0 0 0 0 0 0 1 1 1 1 1 1 0 0 0 0 0 0 0 0 0 0 0 0 0 0 0 0 0 0 0 0 0 0 0 0 0 0 0 0 0 0
0 0 1 1 1 1 1 1 1 1 1 1 1 1 0 0 0 0 0 0 0 0 0 0 0 0 0 0 0 0 0 0 0 0 0 0 0 0 0 0 0 0 0
1 1 1 1 1 1 1 2 2 1 1 1 1 1 1 0 0 0 0 0 0 0 0 0 0 0 0 0 0 0 0 0 0 0 0 0 0 0 0 0 0 0 0
1 1 1 1 1 2 2 2 2 2 2 2 2 1 1 1 1 1 1 1 0 0 0 0 0 0 0 0 0 0 0 0 0 0 0 0 0 0 0 0 0 0 0
1 1 1 1 1 2 3 3 3 3 3 2 2 1 1 1 1 1 1 1 1 0 0 0 0 0 0 0 0 0 0 0 0 0 0 0 0 0 0 0 0 0 0
1 1 1 1 2 2 3 4 4 4 3 3 2 2 1 1 1 1 1 1 1 0 0 0 0 0 0 0 0 0 0 0 0 0 0 0 0 0 0 0 0 0 0
1 1 1 1 1 2 2 3 4 4 3 3 2 2 1 1 1 1 1 1 1 0 0 0 0 0 0 0 0 0 0 0 0 0 0 0 0 0 0 0 0 0 0
0 0 1 1 1 2 2 3 3 3 3 2 2 1 1 1 1 1 1 1 1 0 0 0 0 0 0 0 0 0 0 0 0 0 0 0 0 0 0 0 0 0 0
0 0 1 1 1 1 2 2 3 3 3 2 1 1 1 1 1 1 1 1 1 0 0 0 0 0 0 0 0 0 0 0 0 0 0 0 0 0 0 0 0 0 0
Wind_Speed
12 14 14 14 13 12 12 11 11 12 12 11 11 11 11 11 10 10 9 9 8 8 7 7 6 6 6 6 5 5 5 6 6 6 5 6 6 6 6 6 5 4 7
16 16 15 14 13 12 11 11 11 11 11 11 11 11 11 10 10 10 9 9 8 8 8 7 7 6 6 6 6 6 6 5 5 4 4 5 6 6 6 7 9 5 7
17 16 14 14 13 12 11 11 11 11 11 11 10 10 10 10 10 10 9 9 8 8 8 8 7 7 6 6 6 6 5 5 3 2 1 2 5 7 7 7 8 7 7
17 14 13 14 13 12 11 10 10 10 10 10 10 10 10 10 10 9 9 9 9 9 8 8 8 7 6 6 5 5 4 3 2 2 2 3 4 7 7 7 7 7 7
16 14 15 14 13 11 10 10 10 10 10 10 10 10 9 9 9 9 9 9 9 9 8 8 7 7 6 5 5 4 3 1 1 2 4 5 5 6 7 7 7 7 7
15 15 15 13 13 11 10 10 10 10 10 9 9 9 9 9 9 9 9 9 9 9 8 8 7 7 6 5 5 4 2 1 2 2 4 5 4 5 6 6 7 8 7
15 15 14 13 12 11 10 10 9 9 9 9 9 9 9 8 8 8 8 9 8 8 8 7 7 6 6 5 4 3 1 1 3 2 5 5 4 5 6 6 7 7 7
15 15 14 13 12 11 10 10 9 9 9 9 8 8 8 8 8 8 8 8 7 7 6 6 6 5 5 5 4 2 1 4 2 4 6 5 5 6 6 6 6 6 7
15 15 13 12 11 11 10 10 9 9 9 9 9 8 8 8 8 8 7 7 7 6 5 5 4 4 4 4 3 0 2 5 3 2 7 4 6 6 6 6 6 6 7
14 14 14 13 12 11 9 10 10 9 9 8 9 8 8 8 8 8 8 7 6 5 4 3 3 3 3 3 2 2 4 5 2 6 5 5 7 6 6 6 5 6 6
11 12 12 13 11 10 11 12 10 9 8 8 8 9 8 6 7 7 8 9 6 5 4 3 3 3 4 4 5 5 5 3 3 6 5 7 7 6 6 6 5 5 5
10 11 11 11 10 9 8 9 7 7 7 7 6 8 6 6 5 7 11 10 8 6 5 6 6 6 6 4 6 6 3 3 3 7 5 9 7 6 6 6 5 5 5
9 8 11 11 10 8 6 7 4 4 5 6 7 8 6 4 5 7 5 5 5 7 5 5 6 6 7 5 4 4 0 2 4 6 5 8 7 6 6 6 5 5 5
9 8 8 11 11 9 8 6 6 5 5 5 6 8 5 3 3 6 5 7 6 5 5 5 5 6 4 4 3 2 4 2 4 5 5 8 6 5 5 5 5 5 5
9 8 7 8 10 10 9 6 7 6 6 6 5 6 6 3 3 3 3 4 4 4 3 3 3 2 0 2 3 4 3 4 4 6 5 7 6 5 5 5 5 5 5
7 9 7 7 7 8 8 7 6 6 5 5 5 6 7 5 3 3 2 3 2 2 4 3 2 2 1 3 4 3 2 3 4 6 6 5 6 5 5 5 5 5 5
5 7 8 8 7 8 8 8 5 5 6 5 5 6 6 6 5 4 2 3 2 2 3 1 1 1 2 3 2 1 2 2 2 5 7 5 5 5 6 6 5 5 4
2 3 6 7 7 7 6 6 5 5 5 5 5 4 5 6 5 4 3 3 3 2 1 2 2 1 1 1 2 1 2 1 1 2 4 6 5 5 5 7 6 5 4
7 4 2 6 6 5 6 5 5 5 5 4 4 4 3 4 5 4 3 1 2 2 1 1 1 0 1 1 1 1 1 2 1 2 3 5 6 6 5 6 7 6 5
9 9 6 2 6 6 4 4 4 3 4 4 4 4 3 1 3 4 3 2 1 2 2 1 0 1 1 0 1 1 1 1 2 1 1 2 4 7 7 7 5 5 6
10 10 8 5 3 4 4 4 4 4 3 4 4 4 4 2 3 3 3 2 2 2 1 1 0 0 0 0 1 2 2 2 3 3 2 2 3 5 5 7 5 5 4
10 11 11 9 6 3 3 6 5 5 4 3 3 4 4 4 3 2 3 2 2 2 1 2 2 1 1 1 1 1 1 3 3 3 3 3 2 4 4 6 6 6 6
11 11 9 10 8 5 3 3 4 4 3 3 3 3 4 4 3 2 2 2 2 2 3 4 4 4 3 3 2 3 3 3 2 3 4 4 4 3 4 3 6 7 7
11 11 10 10 9 7 2 4 5 5 5 4 4 4 4 3 2 2 1 1 1 2 4 5 6 5 5 4 3 3 4 3 2 2 2 2 4 4 4 3 2 3 6
12 11 10 9 9 8 4 0 3 4 4 4 4 5 4 3 2 2 2 1 2 2 4 5 5 5 5 5 4 3 4 3 3 2 2 2 1 2 2 3 3 2 4
11 10 10 9 9 8 5 3 4 7 7 7 6 5 4 2 1 1 1 2 3 3 4 5 5 5 5 5 4 4 3 3 3 3 3 3 2 2 2 2 2 3 4
Wind_Direction
128 131 139 133 127 121 117 114 112 110 108 105 102 98 95 91 89 88 86 85 86 88 88 90 93 94 91 89 89 84 79 78 78 78 78 74 68 62 53 40 27 80 84
128 131 140 136 132 127 124 121 118 115 112 109 106 102 99 95 91 89 88 87 86 88 89 89 90 93 93 92 94 91 85 82 82 88 98 94 80 68 58 48 50 74 79
125 131 140 138 136 133 131 128 125 121 118 116 111 107 103 100 96 92 90 88 87 89 89 88 88 89 93 96 96 92 88 85 81 65 42 97 96 74 65 60 61 68 73
127 139 141 141 140 138 137 135 132 129 126 122 118 114 109 105 100 96 91 88 86 86 86 86 86 86 89 93 98 96 92 85 49 358 33 65 76 74 68 65 67 69 71
132 137 132 145 144 143 143 142 138 136 133 130 125 122 116 111 107 102 96 90 87 85 84 84 84 85 88 93 99 104 111 105 357 1 69 76 67 70 70 71 73 74 76
131 129 137 146 147 149 150 148 146 143 142 139 133 128 124 119 113 108 103 96 91 86 83 81 82 83 87 92 97 105 118 170 284 81 87 89 81 77 77 80 80 79 80
134 131 143 149 151 154 155 154 153 151 150 147 142 135 131 127 121 115 109 103 95 88 83 80 78 80 85 91 94 99 107 279 258 114 105 95 100 99 93 90 88 86 84
136 137 142 153 156 160 161 160 160 159 157 154 149 144 141 134 128 123 117 110 103 96 88 82 77 79 86 93 93 93 322 298 221 133 113 114 132 119 109 104 99 95 91
140 141 146 157 161 166 168 168 167 167 165 162 158 154 150 143 141 137 130 124 116 109 100 91 84 84 92 100 101 75 295 309 324 115 114 108 123 122 117 116 110 102 95
147 149 157 161 167 170 173 178 175 174 172 169 165 162 159 159 159 157 154 139 134 129 122 114 109 116 122 136 176 250 293 311 290 92 93 97 100 111 115 119 120 112 106
152 154 160 162 170 171 172 171 174 179 178 173 172 173 173 183 180 178 162 146 152 154 157 170 186 189 180 190 220 244 272 249 127 98 89 95 96 102 110 117 121 120 118
161 163 161 163 165 171 173 154 176 179 172 188 183 180 200 211 182 156 140 156 168 178 189 209 222 225 218 206 221 232 248 230 130 102 97 96 94 99 107 114 118 121 126
169 170 163 166 167 167 158 157 173 170 168 195 192 185 208 217 145 134 156 158 182 193 205 207 223 227 217 207 197 198 204 20 80 98 100 99 100 105 110 115 116 120 128
166 170 173 166 167 171 169 163 170 169 178 188 191 195 199 206 189 165 170 174 186 195 201 190 220 216 218 185 195 147 108 56 89 106 105 102 102 110 114 117 120 121 127
163 164 187 178 176 176 173 164 175 176 179 186 179 191 189 183 214 175 182 166 187 176 169 226 240 160 53 47 46 56 76 87 91 106 117 114 108 107 116 120 124 124 125
159 167 184 191 189 176 170 175 180 172 169 170 169 189 188 177 204 156 202 140 201 174 174 204 203 137 144 83 62 48 43 91 95 120 133 127 121 116 114 120 123 128 132
168 172 177 190 193 191 182 176 166 162 167 166 168 198 192 174 189 157 194 146 203 201 190 204 146 125 126 121 128 159 90 64 145 140 138 146 141 125 121 120 120 124 130
338 199 178 182 198 196 188 169 164 172 163 160 162 193 204 176 185 160 162 153 193 184 161 105 51 32 99 125 149 166 122 107 293 113 149 154 152 142 130 127 123 121 121
340 322 220 178 190 203 183 167 162 172 162 155 156 168 213 178 169 142 140 152 193 144 114 126 155 187 99 110 128 132 145 162 150 223 182 153 143 145 142 138 135 129 125
339 332 323 257 190 193 177 172 158 171 160 150 149 159 181 168 140 126 129 140 66 88 76 21 108 105 78 110 272 178 172 191 212 257 342 121 154 154 153 155 153 148 144
346 338 326 318 258 197 169 177 165 168 164 149 147 150 146 112 93 109 124 125 103 100 126 267 294 153 186 245 20 7 333 285 244 180 210 228 184 144 152 165 170 160 157
350 345 336 332 315 276 191 174 172 164 160 155 135 115 106 104 98 106 116 127 132 129 169 241 262 211 233 217 157 138 295 302 287 224 191 204 219 161 191 185 169 164 167
354 347 336 329 318 296 222 167 157 144 138 128 124 116 107 108 106 99 117 141 168 174 196 225 232 216 214 235 213 170 183 223 259 271 215 196 207 184 197 197 181 178 169
355 350 343 338 333 325 282 181 172 163 160 159 147 131 118 112 119 124 127 174 192 198 205 219 223 215 206 218 230 219 214 198 183 264 293 229 203 199 196 201 200 188 156
353 348 347 345 345 341 346 261 162 141 135 127 125 122 116 108 110 122 127 201 231 225 225 226 231 220 210 212 215 216 230 245 229 199 246 281 275 233 203 192 189 198 151
356 352 352 356 357 357 10 45 113 126 130 132 130 131 121 110 94 84 137 217 230 227 231 231 229 223 214 214 217 216 207 210 215 212 216 231 243 259 235 208 199 187 169